Location: Aufkirchen
(47.9603°N, 11.3653°E)
Time: 17:30:15
(UTC+01:00)

Transit 4A - Pass Details

Date: 04 December 2020
Orbit: 864 x 980 km, 66.8° (Epoch: 26 January)

Event Time Altitude Azimuth Distance (km) Brightness Sun altitude
Rises 06:05:13 0° 180° (S) 3,618 11.2 -16.3°
Reaches altitude 10° 06:07:59 10° 170° (S) 2,691 10.6 -15.9°
Maximum altitude 06:13:28 32° 110° (ESE) 1,600 9.9 -15.0°
Drops below altitude 10° 06:19:01 10° 50° (NE) 2,738 10.8 -14.1°
Sets 06:21:51 0° 41° (NE) 3,691 11.3 -13.6°
